Погода в Луковской

Россия / Республика Северная Осетия — Алания     43°43′37″N   44°37′48″E
темп.,
°C
ветер,
м/с
пор.,
м/с
влажн.,
%
обл.,
%
осадки,
мм/ч
давл.,
гПа
погр.,
м
8 августа, пн
пн800:00+20зюз358698 0.0 1011106
03:00+20з3482100 0.0 1011117
06:00+21з227699 0.1 101256
09:00+23с116199 0.1 1014171
12:00+28всв563875 0.0 10141617
15:00+29в66315 0.0 10131716
18:00+27в463992 0.0 1014951
21:00+22ююв22521 0.0 101415
9 августа, вт
вт900:00+21ююз11631 0.0 101411
03:00+19з11720 0.0 101411
06:00+20з11700 0.0 101531
09:00+27в34440 0.0 1014891
12:00+33в56230 0.0 10132441
15:00+34в55190 0.0 10123020
18:00+33в57200 0.0 10111377
21:00+25вюв512320 0.0 1013287
10 августа, ср
ср1000:00+21вюв34450 0.0 101254
03:00+19в34570 0.0 101241
06:00+19в310600 0.0 1012271
09:00+29в712290 0.0 10111211
12:00+35в1010170 0.0 10082495
15:00+36в1010170 0.0 10072714
18:00+32в910231 0.0 10081669
21:00+26в611418 0.0 1009492
11 августа, чт
чт1100:00+22в376050 0.0 1008170
03:00+21всв23750 0.0 100844
06:00+21ю11740 0.0 100965
09:00+28всв12460 0.0 1009801
12:00+35вюв12286 0.0 10071491
15:00+37юв34245 0.0 10052207
18:00+34в99355 0.0 1006940
21:00+27в611540 0.0 1009462
12 августа, пт
пт1200:00+24в49560 0.0 1009319
03:00+22всв22700 0.2 101022
06:00+22вюв12730 0.2 101196
09:00+29в23520 0.3 1011782
12:00+36в46260 0.0 10091753
15:00+39всв98180 0.1 10082753
18:00+34в910234 0.0 10091324
21:00+28в712387 0.1 1011608